[[{"header":{"parameterUnit":"m.s-1","parameterCategory":1,"la1":30.2991,"la2":30.254,"lo1":-89.0895,"lo2":-89.0444,"dy":0.0017,"dx":0.0017,"nx":28,"ny":28,"refTime":"2024-08-17T03:00:00:Z","depth":0,"parameterNumber":2,"parameterNumberName":"U-component_of_WINDS"},"data":[0,0,0,0,0,0,0,0,0,0,0,0,0,0,0,0,0,0,0,0,0,0,0,0,0,0,0,0,0,0,0,0,0,0,0,0,0,0,0,0,0,0,0,0,0,0,0,0,0,0,0,0,0,0,0,0,0,0,0.4142,0.4141,0,0.4114,0.4114,0.4114,0.4111,0.4112,0.4112,0.4112,0.4083,0.4082,0.4081,0,0,0,0,0,0,0,0,0,0,0,0,0,0.419,0.4189,0.4142,0.4141,0.4141,0.4114,0.4114,0.4114,0.4111,0.4112,0.4112,0.4112,0.4083,0.4082,0.4081,0,0,0,0,0,0,0,0,0,0,0,0,0,0.4166,0.4189,0.4142,0.4137,0.4136,0.4114,0.4114,0.4113,0.4111,0.4112,0.4112,0.4113,0.4084,0.4082,0.4081,0.4062,0,0,0.4076,0.4075,0,0,0,0,0,0,0,0,0.4168,0.4164,0.4138,0.4137,0.4136,0.4117,0.412,0.4096,0.4111,0.4121,0.4112,0.4113,0.4094,0.4091,0.4085,0.406,0.4059,0.4075,0.4075,0.4074,0.4073,0,0,0,0,0,0,0,0.4169,0.4166,0.4131,0.4137,0.4136,0.4135,0.4132,0.4116,0.4105,0.412,0.412,0.4116,0.4093,0.4087,0.4084,0.4059,0.4076,0.4074,0.4073,0.4073,0.4015,0.4015,0,0,0,0,0,0,0.4172,0.4167,0.4132,0.413,0.4153,0.4134,0.4131,0.4122,0.4105,0.4103,0.4116,0.4116,0.4089,0.4086,0.4083,0.4059,0.4074,0.4072,0.4071,0.4016,0.4015,0.4015,0,0,0,0,0,0,0.4173,0.4169,0.4133,0.4148,0.4144,0.4133,0.4123,0.4122,0.4115,0.4102,0.41,0.4111,0.4089,0.4086,0.4067,0.4058,0.4072,0.407,0.4017,0.4016,0.4015,0.4011,0,0,0,0,0,0,0.4174,0.4169,0.4163,0.4148,0.4143,0.4117,0.4123,0.4121,0.4112,0.4113,0.4097,0.4095,0.4089,0.4069,0.4065,0.4056,0.4069,0.4017,0.4016,0.4015,0.4012,0.401,0.4008,0,0,0,0,0,0.4176,0.4162,0.4162,0.4158,0.4134,0.4117,0.4114,0.4108,0.4112,0.4104,0.4096,0.4096,0.406,0.4067,0.4063,0.4053,0.4018,0.4016,0.4015,0.4012,0.401,0.4008,0,0,0,0,0,0,0.4176,0.4161,0.416,0.4142,0.413,0.4116,0.4107,0.4106,0.4093,0.4094,0.4087,0.4083,0.4064,0.4057,0.4066,0.4033,0.4039,0.4037,0.4038,0.4036,0.4035,0.4036,0.4068,0,0,0,0,0,0.4174,0.4161,0.4148,0.4133,0.4128,0.4118,0.4111,0.4107,0.4095,0.409,0.408,0.4068,0.4054,0.4045,0.4031,0.4011,0.4006,0.4002,0.4,0.3999,0.3997,0.3983,0.3981,0.401,0.401,0.401,0,0,0.4169,0.4159,0.4152,0.4133,0.4124,0.411,0.4114,0.41,0.409,0.4088,0.4069,0.4062,0.4048,0.4027,0.4018,0.4021,0.3987,0.3997,0.3996,0.3995,0.3982,0.3979,0.3977,0.4009,0.401,0.401,0,0,0.4153,0.4145,0.4131,0.4121,0.4108,0.4102,0.4098,0.4084,0.4079,0.406,0.4058,0.4045,0.4022,0.4011,0.4003,0.3982,0.3981,0.3978,0.3969,0.3956,0.3954,0.3952,0.3943,0.394,0.3976,0.3976,0.3976,0,0.4148,0.4129,0.4123,0.4109,0.41,0.4098,0.4083,0.4074,0.4056,0.405,0.4054,0.4023,0.4013,0.399,0.3985,0.3978,0.3973,0.3979,0.3955,0.3953,0.395,0.3942,0.3939,0.3976,0.3976,0.3976,0.3976,0,0.4123,0.4109,0.4099,0.4082,0.4073,0.4058,0.4049,0.404,0.4037,0.403,0.401,0.3999,0.3982,0.3977,0.3974,0.3952,0.3954,0.3957,0.3962,0.3947,0.3939,0.3936,0.3975,0.3975,0.3975,0.3975,0,0,0.4106,0.4086,0.4082,0.4074,0.4058,0.4047,0.4032,0.4016,0.4007,0.3995,0.3981,0.3961,0.3962,0.3953,0.3949,0.3938,0.392,0.3941,0.394,0.3936,0.3894,0.3891,0.3888,0.3919,0.3919,0.3918,0.3894,0,0.4087,0.406,0.4055,0.4031,0.4017,0.4015,0.4001,0.399,0.3983,0.3969,0.3962,0.3947,0.3951,0.3944,0.3934,0.3924,0.3911,0.3926,0.3905,0.3904,0.3907,0.3884,0.3881,0.3859,0.3891,0.3891,0.389,0,0.4062,0.4049,0.4024,0.4009,0.4003,0.3991,0.3975,0.3963,0.3949,0.3945,0.3934,0.3931,0.3913,0.3921,0.3896,0.3907,0.3898,0.3892,0.3891,0.3887,0.3896,0.3878,0.3852,0.3848,0.3886,0.3886,0.3886,0,0.405,0.4027,0.4008,0.4001,0.3984,0.3975,0.3968,0.3954,0.3945,0.3931,0.3924,0.3908,0.3899,0.3887,0.3879,0.3885,0.3854,0.3861,0.3849,0.3849,0.3842,0.3842,0.3812,0.3838,0.3838,0.3838,0.3838,0,0.4029,0.4014,0.4003,0.3991,0.3973,0.3967,0.3949,0.3941,0.3929,0.3915,0.3912,0.3899,0.389,0.3876,0.387,0.3849,0.3845,0.384,0.3839,0.384,0.384,0.3833,0.3834,0.3837,0.3838,0.3838,0.3838,0,0.4013,0.4005,0.3984,0.3969,0.3965,0.3952,0.3939,0.3927,0.392,0.3903,0.3898,0.3887,0.3869,0.386,0.3839,0.3834,0.3811,0.3811,0.3815,0.3814,0.3802,0.3802,0.3765,0.3759,0.3791,0.379,0.379,0,0.3999,0.3987,0.3971,0.3961,0.3953,0.3939,0.3928,0.3921,0.3911,0.3894,0.3884,0.3866,0.3852,0.3823,0.3813,0.3796,0.3794,0.3782,0.3792,0.3793,0.3792,0.3792,0.379,0.378,0.378,0.378,0.378,0,0.3976,0.3972,0.3958,0.3942,0.393,0.3917,0.3905,0.3897,0.3888,0.3876,0.3858,0.3847,0.3824,0.3806,0.3788,0.3779,0.3777,0.3777,0.3773,0.3773,0.3776,0.3772,0.3809,0.3777,0.3778,0.3778,0.3778,0.3778,0.3959,0.3948,0.3934,0.3918,0.3908,0.3896,0.3883,0.3874,0.386,0.3841,0.3837,0.3818,0.3803,0.3779,0.377,0.3754,0.3756,0.375,0.3749,0.3747,0.3746,0.3779,0.375,0.375,0.3751,0.3751,0.3751,0,0.3934,0.3925,0.391,0.3892,0.3879,0.388,0.3865,0.3854,0.3837,0.3824,0.3809,0.3788,0.377,0.3758,0.374,0.3729,0.3728,0.3724,0.3724,0.3722,0.3745,0.375,0.3726,0.3726,0.3726,0.3726,0.3726,0.3726,0.3919,0.3899,0.3894,0.3868,0.3859,0.3841,0.3832,0.382,0.381,0.3786,0.3771,0.3764,0.375,0.3731,0.3714,0.3711,0.3703,0.37,0.3696,0.3718,0.3721,0.3723,0.3727,0.3699,0.3699,0.3674,0.3674,0.3674]},{"header":{"parameterUnit":"m.s-1","parameterCategory":1,"la1":30.2991,"la2":30.254,"lo1":-89.0895,"lo2":-89.0444,"dy":0.0017,"dx":0.0017,"nx":28,"ny":28,"refTime":"2024-08-17T03:00:00:Z","depth":0,"parameterNumber":3,"parameterNumberName":"V-component_of_WINDS"},"data":[0,0,0,0,0,0,0,0,0,0,0,0,0,0,0,0,0,0,0,0,0,0,0,0,0,0,0,0,0,0,0,0,0,0,0,0,0,0,0,0,0,0,0,0,0,0,0,0,0,0,0,0,0,0,0,0,0,0,2.7653,2.7653,0,2.7673,2.7673,2.7673,2.7641,2.764,2.7639,2.7638,2.7658,2.7659,2.7661,0,0,0,0,0,0,0,0,0,0,0,0,0,2.7586,2.7588,2.7653,2.7653,2.7654,2.7673,2.7673,2.7673,2.7642,2.764,2.7639,2.7638,2.7657,2.7659,2.7661,0,0,0,0,0,0,0,0,0,0,0,0,0,2.7612,2.7588,2.7653,2.764,2.7639,2.7673,2.7673,2.7673,2.7642,2.764,2.7639,2.7637,2.7657,2.7659,2.7661,2.7708,0,0,2.7668,2.7669,0,0,0,0,0,0,0,0,2.761,2.7614,2.7642,2.7641,2.764,2.7653,2.7657,2.7685,2.7642,2.7641,2.7638,2.7636,2.7657,2.766,2.7667,2.7709,2.771,2.7668,2.767,2.7671,2.7671,0,0,0,0,0,0,0,2.7609,2.7613,2.7661,2.7642,2.7641,2.7633,2.7635,2.7662,2.7658,2.7641,2.7639,2.7641,2.7657,2.7665,2.7667,2.771,2.7668,2.767,2.7672,2.7673,2.779,2.7792,0,0,0,0,0,0,2.7609,2.7612,2.766,2.7661,2.7621,2.7635,2.7637,2.765,2.7658,2.7657,2.7643,2.764,2.7662,2.7664,2.7668,2.7721,2.7671,2.7673,2.7674,2.7788,2.779,2.7792,0,0,0,0,0,0,2.7607,2.7613,2.7659,2.7636,2.7641,2.7638,2.7653,2.7652,2.766,2.7659,2.7658,2.7652,2.766,2.7664,2.7698,2.7722,2.7674,2.7676,2.7786,2.7789,2.7791,2.7831,0,0,0,0,0,0,2.7606,2.7613,2.7631,2.7637,2.7643,2.769,2.7655,2.7653,2.7664,2.766,2.7667,2.7667,2.7659,2.7695,2.77,2.7724,2.7678,2.7784,2.7787,2.7791,2.7827,2.7834,2.7841,0,0,0,0,0,2.7603,2.7642,2.7632,2.7638,2.7665,2.7691,2.7695,2.7685,2.7666,2.7684,2.7683,2.7667,2.7719,2.7698,2.7704,2.7729,2.7783,2.7787,2.779,2.7824,2.7833,2.784,0,0,0,0,0,0,2.7639,2.7642,2.7632,2.7673,2.7682,2.7686,2.7708,2.7695,2.771,2.7706,2.7694,2.7695,2.7731,2.7734,2.7711,2.7774,2.7747,2.7753,2.7771,2.7779,2.7786,2.7784,2.768,0,0,0,0,0,2.7652,2.7673,2.7674,2.7711,2.7716,2.7711,2.7722,2.7715,2.7723,2.7727,2.7729,2.7738,2.7756,2.7768,2.7785,2.7828,2.7828,2.7848,2.7855,2.786,2.7864,2.7886,2.7894,2.7805,2.7805,2.7805,0,0,2.7678,2.7682,2.7697,2.7718,2.7724,2.7745,2.7715,2.7739,2.7755,2.773,2.7762,2.7764,2.7773,2.7811,2.7828,2.7814,2.7889,2.7865,2.7869,2.7871,2.7891,2.7899,2.7906,2.7808,2.7807,2.7807,0,0,2.7737,2.7743,2.7773,2.778,2.7789,2.7786,2.7793,2.7799,2.7799,2.783,2.7812,2.783,2.7862,2.7869,2.7877,2.7937,2.7922,2.7943,2.7977,2.7998,2.8005,2.8011,2.8031,2.8038,2.7948,2.7948,2.7948,0,2.7768,2.78,2.779,2.7815,2.7825,2.7804,2.7834,2.7841,2.7855,2.7862,2.7847,2.7885,2.789,2.7929,2.7943,2.7951,2.7958,2.7941,2.8005,2.8011,2.8016,2.8035,2.8043,2.795,2.795,2.795,2.7949,0,2.7837,2.7859,2.7883,2.7897,2.7909,2.7936,2.793,2.7944,2.7935,2.7933,2.7964,2.7969,2.7986,2.7995,2.7987,2.8032,2.8023,2.8007,2.7979,2.8027,2.8045,2.8052,2.7954,2.7953,2.7952,2.7951,0,0,2.7918,2.7926,2.7934,2.794,2.7949,2.7966,2.7992,2.8008,2.8019,2.803,2.8051,2.8078,2.8063,2.8071,2.8064,2.8082,2.8128,2.8063,2.8063,2.8074,2.8176,2.8187,2.8196,2.8119,2.812,2.8121,2.8175,0,2.7974,2.8019,2.8011,2.8055,2.8074,2.8055,2.8078,2.8085,2.8084,2.81,2.8099,2.8118,2.8097,2.8102,2.812,2.8119,2.8148,2.8115,2.8136,2.8137,2.8133,2.8205,2.8217,2.8268,2.8182,2.8183,2.8184,0,2.8047,2.8059,2.8105,2.8109,2.8117,2.8138,2.8151,2.8168,2.8176,2.8173,2.8183,2.8172,2.8197,2.817,2.8204,2.8181,2.819,2.8191,2.8192,2.8192,2.8162,2.8206,2.8284,2.8291,2.8195,2.8194,2.8193,0,2.8098,2.8128,2.8158,2.8164,2.817,2.8185,2.8188,2.8195,2.8205,2.8217,2.8223,2.8238,2.8246,2.8257,2.825,2.8231,2.8284,2.8257,2.8282,2.8282,2.8293,2.8292,2.8372,2.8301,2.8301,2.8301,2.8301,0,2.8162,2.819,2.8181,2.82,2.823,2.8221,2.8251,2.8252,2.8258,2.8276,2.8261,2.8278,2.8268,2.8284,2.8278,2.8306,2.831,2.8308,2.8306,2.8309,2.8309,2.8313,2.8308,2.8303,2.8303,2.8302,2.8302,0,2.8224,2.822,2.8251,2.8255,2.8256,2.8279,2.8281,2.8298,2.8296,2.8319,2.8324,2.832,2.8338,2.8333,2.8353,2.8349,2.8383,2.8378,2.8381,2.8379,2.8403,2.84,2.8487,2.8497,2.8422,2.8423,2.8423,0,2.8264,2.8285,2.829,2.8301,2.8306,2.8324,2.8334,2.8325,2.8336,2.8346,2.8361,2.8378,2.8391,2.8421,2.842,2.8434,2.8428,2.8457,2.843,2.8431,2.8426,2.8424,2.8425,2.8462,2.8463,2.8463,2.8464,0,2.8334,2.833,2.8345,2.836,2.8372,2.8383,2.8392,2.8402,2.8394,2.8407,2.8425,2.8435,2.8454,2.8471,2.8484,2.8487,2.8474,2.8473,2.8479,2.8481,2.8481,2.8479,2.8393,2.847,2.847,2.8469,2.8469,2.8469,2.8385,2.8402,2.8408,2.8425,2.8431,2.844,2.8456,2.8456,2.8471,2.8486,2.848,2.8501,2.8507,2.8523,2.8528,2.8544,2.8532,2.8542,2.8544,2.8546,2.8548,2.848,2.8546,2.8546,2.8546,2.8546,2.8546,0,2.8452,2.8456,2.8471,2.8485,2.8498,2.8485,2.8494,2.8506,2.8524,2.8532,2.8544,2.8565,2.858,2.8581,2.8595,2.8607,2.8602,2.8611,2.8609,2.861,2.8558,2.8551,2.8616,2.8616,2.8615,2.8615,2.8615,2.8615,2.8489,2.8517,2.8514,2.8545,2.8547,2.8567,2.8574,2.8581,2.8587,2.861,2.8623,2.8624,2.8628,2.8642,2.8656,2.8655,2.866,2.8672,2.8669,2.8621,2.8614,2.8607,2.86,2.8674,2.8674,2.8719,2.872,2.872]}]]